Regional Weather Roundup
Issued by NWS

Home | Current Version | Previous Version | Text Only | Print | Product List | Glossary Off
Versions: 1 2 3 4 5 6 7 8 9 10 11 12 13 14 15 16 17 18 19 20 21 22 23 24 25 26 27 28 29 30 31 32 33 34 35 36 37 38 39 40 41 42 43 44 45 46 47 48 49 50

000
ASUS43 KLOT 290906
RWRIL

ILLINOIS REGIONAL WEATHER ROUNDUP
NATIONAL WEATHER SERVICE CHICAGO/ROMEOVILLE IL
300 AM CST SAT NOV 29 2014

NOTE: "FAIR" INDICATES FEW OR NO CLOUDS BELOW 12,000 FEET WITH NO
SIGNIFICANT WEATHER AND/OR OBSTRUCTIONS TO VISIBILITY.

* THESE STATIONS ARE NOT UNDER NWS QUALITY CONTROL. THEY ALSO MAY NOT
  REPORT WEATHER SUCH AS PRECIPITATION OR FOG.

ILZ001-002-007-009-015-016-024-291000-
NORTHWEST ILLINOIS

CITY           SKY/WX    TMP DP  RH WIND       PRES   REMARKS
MOLINE         CLEAR     37  31  78 S5        29.70F WCI  33
STERLING*      CLEAR     34  28  80 SE6       29.73F WCI  29
SAVANNA*       CLEAR     30  28  90 SE5       29.71F WCI  26
$$

ILZ003-004-008-010-011-017-018-291000-
NORTH CENTRAL ILLINOIS

CITY           SKY/WX    TMP DP  RH WIND       PRES   REMARKS
ROCKFORD       CLEAR     30  26  85 SE7       29.77F WCI  23
FREEPORT*      CLEAR     30  27  90 SE5       29.74F WCI  25
ROCHELLE*      PTCLDY    31  29  92 S10       29.76F WCI  22
DE KALB*       PTCLDY    29  27  92 S14       29.77F WCI  19
PERU*          FAIR      35  32  89 S13       29.77F WCI  26
$$

ILZ005-006-012>014-019>023-291000-
NORTHEAST ILLINOIS

CITY           SKY/WX    TMP DP  RH WIND       PRES   REMARKS
CHICAGO-OHARE  PTCLDY    30  26  85 S9        29.80F WCI  22
CHICAGO-MIDWAY MOCLDY    34  27  75 S10       29.81F WCI  26
AURORA         PTCLDY    32  27  81 S12       29.79F WCI  23
LANSING*       PTCLDY    33  27  80 S13G18    29.83F WCI  24
JOLIET*        PTCLDY    32  28  85 SE7       29.81F WCI  26
WAUKEGAN       CLEAR     31  27  85 S7        29.79F WCI  24
DUPAGE AIRPORT PTCLDY    31  27  85 S10       29.78F WCI  22
KANKAKEE*      PTCLDY    33  29  83 S10       29.84F WCI  25
WHEELING       CLEAR     32  27  81 S9        29.81F WCI  24
MORRIS*        PTCLDY    32  30  93 S9        29.78F WCI  24
ROMEOVILLE*    PTCLDY    32  28  86 S12       29.80F WCI  23
NORTHERLY ISL    N/A     33  27  79 S7          N/A  WCI  27
$$

LMZ740>746-291000-
SOUTHERN LAKE MICHIGAN

STATION/POSITION SKY/WX   TEMP    WIND        PRES    VSBY  WAVE
                          AIR SEA DIR/SP/G                  HT/PER
                          (F)     (DEG/KT/KT) (MB)    (MI)  (FT/S)
SOUTHERN BUOY              39 42  180/ 19/ 21 1010.6F         5/ 6
WAUKEGAN HARBOR            34     180/ 14/ 16   N/A
HARRISON CRIB              34     180/ 22/ 25   N/A
BURNHAM HARBOR             33     170/  6/ 11   N/A
CALUMET HARBOR             34     170/  9/ 15 1008.9F
MICHIGAN CITY              34     140/ 16/ 22   N/A
$$

ILZ025>027-034>036-040-047-049-050-058-095>099-291000-
WEST-CENTRAL ILLINOIS

CITY           SKY/WX    TMP DP  RH WIND       PRES   REMARKS
QUINCY         PTCLDY    44  35  70 S12       29.73F
GALESBURG*     CLEAR     34  32  92 SE7       29.72F WCI  28
MACOMB*        PTCLDY    36  33  88 S9        29.75F WCI  29
JACKSONVILLE*  CLEAR     41  35  78 S14       29.77F
PITTSFIELD*    PTCLDY    42  35  75 S8        29.77F
$$

ILZ028>032-037-038-041>044-048-051>054-059>061-291000-
CENTRAL ILLINOIS

CITY           SKY/WX    TMP DP  RH WIND       PRES   REMARKS
PONTIAC        PTCLDY    35  32  88 S13       29.80F WCI  26
BLOOMINGTON    PTCLDY    33  31  93 S14       29.82F WCI  23
DECATUR        PTCLDY    38  31  76 S15       29.84F WCI  29
PEORIA         PTCLDY    37  31  78 S14       29.77F WCI  28
LACON*         PTCLDY    34  31  87 S8        29.76F WCI  27
LINCOLN*       CLEAR     37  33  86 S15       29.81F WCI  28
SPRINGFIELD    CLEAR     40  34  79 S16       29.80F
TAYLORVILLE    PTCLDY    37  32  81 S16       29.83F WCI  28
$$

ILZ033-039-045-046-055>057-062-063-291000-
EAST-CENTRAL ILLINOIS

CITY           SKY/WX    TMP DP  RH WIND       PRES   REMARKS
CHAMPAIGN      PTCLDY    36  30  79 S15       29.85F WCI  27
DANVILLE*      PTCLDY    34  28  78 S9        29.86F WCI  27
RANTOUL*       PTCLDY    33  30  89 SE8       29.85F WCI  26
MATTOON        PTCLDY    37  28  70 S15       29.87F WCI  28
PARIS*         CLEAR     35  30  82 S12       29.90F WCI  27
$$

ILZ079-100>102-291000-
SOUTHWEST ILLINOIS

CITY           SKY/WX    TMP DP  RH WIND       PRES   REMARKS
ALTON          PTCLDY    38  34  84 SE8       29.84F WCI  32
BELLEVILLE     FAIR      41  36  83 S10       29.86F
CAHOKIA*       PTCLDY    41  35  79 S8        29.85F
SPARTA*        MOCLDY    42  33  72 S13G18    29.89F
$$

ILZ064>066-069>071-074>076-080>082-084>086-088>090-092>094-291000-
SOUTH-CENTRAL ILLINOIS

CITY           SKY/WX    TMP DP  RH WIND       PRES   REMARKS
CARBONDALE     PTCLDY    46  31  55 S21G29    29.93F
CAIRO*         MOCLDY    45  31  60 S8        30.00F
EFFINGHAM*     PTCLDY    37  27  67 S5        29.90F WCI  33
MARION         PTCLDY    43  30  61 S15G21    29.95F
MT. VERNON     CLEAR     41  30  65 S14       29.92F
CENTRALIA*     CLEAR     42  32  67 S15G22    29.89F
SALEM*           N/A     45  34  65 S13G18    29.90F
METROPOLIS*    MOCLDY    45  32  59 S9G16       N/A
$$

ILZ067-068-072-073-078-083-087-091-291000-
SOUTHEAST ILLINOIS

CITY           SKY/WX    TMP DP  RH WIND       PRES   REMARKS
LAWRENCEVILLE  CLEAR     35  30  82 S8        29.96F WCI  29
FLORA*         CLEAR     38  31  76 S10       29.93F WCI  30
FAIRFIELD*     CLEAR     38  31  73 S7        29.93F WCI  33
HARRISBURG*    CLEAR     43  30  59 S12       29.98F
ROBINSON*      PTCLDY    36  30  78 S9        29.95F WCI  29
CARMI*         CLEAR     41  33  74 S10       29.97F
$$

ABBREVIATIONS USED IN REMARKS
   TC - TEMPERATURE IN CELSIUS
  WCI - WIND CHILL INDEX
   HX - HEAT INDEX
  VSB - VISIBILITY
$$



USA.gov is the U.S. government's official web portal to all federal, state and local government web resources and services.